Tracking 29069 objects as of 18-Jul-2024
HD Live streaming from Space Station
objects crossing your sky now

METEOR 1-5 DEB

Track METEOR 1-5 DEB now!
10-day predictions


NORAD ID: 58397
Int'l Code: 1970-047D
Perigee: 828.4 km
Apogee: 870.0 km
Inclination: 81.2 °
Period: 101.8 minutes
Semi major axis: 7220 km
RCS: Unknown
Launch date: June 23, 1970
Source: Commonwealth of Independent States (former USSR) (CIS)
Launch site: PLESETSK MISSILE AND SPACE COMPLEX (PKMTR)

Note: This is SATELLITE DEBRIS
Your satellite tracking list
Your tracking list is empty




NASA's NSSDC Master Catalog

Two Line Element Set (TLE):
1 58397U 70047D   24199.04705467  .00000987  00000-0  50164-3 0  9991
2 58397  81.2154 206.5986 0028784 250.3546 109.4521 14.15065454 37361
Source of the keplerian elements: AFSPC